This is the latest recevied weather packets stored in our database for station/object OE3APM-13. If no packets are shown the sender has not sent any weather packets the latest 10 day(s).
| Time | Temp. | Humidity | Pressure | Rain* | Wind** | Luminosity | Snow |
|---|---|---|---|---|---|---|---|
| 1777747242 | 16.67° C | 52% | 1019.8 hPa | 0 mm | - | 0 W/m² | - |
| 1777746939 | 17.22° C | 49% | 1019.8 hPa | 0 mm | - | 0 W/m² | - |
| 1777746637 | 17.78° C | 47% | 1019.8 hPa | 0 mm | - | 0 W/m² | - |
| 1777746337 | 18.33° C | 42% | 1019.7 hPa | 0 mm | - | 0 W/m² | - |
| 1777746036 | 18.89° C | 39% | 1019.7 hPa | 0 mm | - | 0 W/m² | - |
| 1777745738 | 19.44° C | 37% | 1019.7 hPa | 0 mm | - | 0 W/m² | - |
| 1777745435 | 19.44° C | 36% | 1019.6 hPa | 0 mm | - | 0 W/m² | - |
| 1777745133 | 20° C | 36% | 1019.6 hPa | 0 mm | - | 0 W/m² | - |
| 1777744832 | 20.56° C | 36% | 1019.6 hPa | 0 mm | - | 0 W/m² | - |
| 1777744532 | 20.56° C | 33% | 1019.6 hPa | 0 mm | - | 0 W/m² | - |
| 1777744231 | 21.11° C | 34% | 1019.6 hPa | 0 mm | - | 0 W/m² | - |
| 1777743933 | 21.11° C | 32% | 1019.6 hPa | 0 mm | - | 0 W/m² | - |
| 1777743629 | 21.67° C | 30% | 1019.6 hPa | 0 mm | - | 7 W/m² | - |
| 1777743330 | 21.67° C | 30% | 1019.6 hPa | 0 mm | - | 14 W/m² | - |
| 1777743030 | 21.67° C | 30% | 1019.7 hPa | 0 mm | - | 23 W/m² | - |
| 1777742730 | 21.67° C | 29% | 1019.7 hPa | 0 mm | - | 33 W/m² | - |
| 1777742429 | 21.67° C | 30% | 1019.6 hPa | 0 mm | - | 42 W/m² | - |
| 1777742130 | 21.67° C | 29% | 1019.6 hPa | 0 mm | - | 54 W/m² | - |
| 1777741831 | 22.22° C | 29% | 1019.6 hPa | 0 mm | - | 67 W/m² | - |
| 1777741529 | 22.22° C | 29% | 1019.7 hPa | 0 mm | - | 81 W/m² | - |
| 1777741227 | 22.22° C | 28% | 1019.7 hPa | 0 mm | - | 97 W/m² | - |
| 1777740923 | 22.78° C | 29% | 1019.7 hPa | 0 mm | - | 88 W/m² | - |
| 1777740622 | 22.78° C | 29% | 1019.8 hPa | 0 mm | - | 88 W/m² | - |
| 1777740323 | 22.78° C | 29% | 1019.8 hPa | 0 mm | - | 33 W/m² | - |
| 1777740021 | 23.33° C | 27% | 1019.8 hPa | 0 mm | - | 165 W/m² | - |
* Rain latest hour (hover to see other rain measurements)
** Current wind speed in m/s (hover to see current wind gust speed)